Weather reports worldwide

Advertisment
Biarritz, France (7602): temperature & dewpoint: 19.08.2019 08:00:00 - 25.08.2019 08:00:00 (CEST)Biarritz, France (7602): temperature 5cm: 19.08.2019 08:00:00 - 25.08.2019 08:00:00 (CEST)Biarritz, France (7602): temperature -20cm & temperature -100cm: 19.08.2019 08:00:00 - 25.08.2019 08:00:00 (CEST)Biarritz, France (7602): wind speed & gusts: 19.08.2019 08:00:00 - 25.08.2019 08:00:00 (CEST)Biarritz, France (7602): wind direction: 19.08.2019 08:00:00 - 25.08.2019 08:00:00 (CEST)Biarritz, France (7602): reduced air pressure: 19.08.2019 08:00:00 - 25.08.2019 08:00:00 (CEST)Biarritz, France (7602): visibility: 19.08.2019 08:00:00 - 25.08.2019 08:00:00 (CEST)Biarritz, France (7602): sunshine duration: 19.08.2019 08:00:00 - 25.08.2019 08:00:00 (CEST)Biarritz, France (7602): precipitation: 19.08.2019 08:00:00 - 25.08.2019 08:00:00 (CEST)
Date & Time tt [°C] td [°C] tt 5cm [°C] tt -20cm [°C] tt -100cm [°C] ff [km/h] ff [kn] fx [km/h] fx [kn] dd ppp [hPa] vv [km] sd [min] rr [mm]
25.08.2019 08:00:00 - - - - - - - - - - - - - -
25.08.2019 07:00:00 19,8 19,3 21,1 22,6 21,4 5 3 9 5 SSE 1018,4 7 0 0,0
25.08.2019 06:00:00 19,9 19,2 21,2 22,7 21,3 5 3 8 4 SSE 1018,6 7 0 0,0
25.08.2019 05:00:00 20,2 19,0 21,4 22,8 21,4 4 2 6 3 S 1018,7 11 0 0,0
25.08.2019 04:00:00 20,3 19,0 21,4 22,9 21,4 4 2 14 8 WNW 1018,9 12 0 0,0
25.08.2019 03:00:00 20,6 18,9 21,7 22,9 21,3 9 5 19 11 WNW 1019,0 10 0 0,0
25.08.2019 02:00:00 20,8 18,7 22,1 23,0 21,3 10 6 24 13 W 1019,1 16 0 0,0
25.08.2019 01:00:00 21,2 18,8 22,4 23,0 21,3 16 9 26 14 W 1019,2 20 0 0,0
25.08.2019 00:00:00 21,3 18,7 22,6 23,1 21,3 17 9 25 14 WNW 1019,4 17 0 0,0
24.08.2019 23:00:00 21,5 19,2 22,8 23,2 21,3 16 9 26 14 WNW 1019,2 16 0 0,0
24.08.2019 22:00:00 21,6 19,2 22,9 23,2 21,3 16 9 29 15 WNW 1018,9 18 0 0,0
24.08.2019 21:00:00 21,8 19,4 23,2 23,3 21,3 18 10 32 18 WNW 1018,5 19 0 0,0
24.08.2019 20:00:00 22,2 20,1 24,0 23,3 21,3 21 11 35 19 WNW 1018,2 17 6 0,0
24.08.2019 19:00:00 23,2 20,5 26,4 23,3 21,3 24 13 36 19 W 1018,2 18 56 0,0
24.08.2019 18:00:00 23,7 20,8 26,8 23,1 21,3 25 14 34 19 W 1018,2 18 39 0,0
24.08.2019 17:00:00 23,9 21,0 27,0 23,0 21,3 21 12 32 17 W 1018,0 14 37 0,0
24.08.2019 16:00:00 24,1 21,2 29,3 22,7 21,3 18 10 33 18 W 1017,9 15 45 0,0
24.08.2019 15:00:00 24,6 21,7 31,4 22,4 21,3 18 10 27 14 W 1017,9 15 60 0,0
24.08.2019 14:00:00 25,9 22,2 32,6 22,1 21,3 18 10 26 14 WNW 1017,6 30 60 0,0
24.08.2019 13:00:00 28,2 17,4 35,2 21,9 21,3 12 6 20 11 WNW 1017,5 33 60 0,0
24.08.2019 12:00:00 29,0 16,2 34,6 21,7 21,3 7 4 21 12 NW 1017,1 19 60 0,0
24.08.2019 11:00:00 27,4 16,7 34,0 21,6 21,3 7 4 11 6 N 1017,0 20 60 0,0
24.08.2019 10:00:00 24,8 16,5 25,5 21,6 21,3 3 2 7 4 NE 1016,8 52 60 0,0
24.08.2019 09:00:00 20,5 17,7 18,0 21,7 21,3 3 1 6 4 E 1016,3 34 60 0,0
24.08.2019 08:00:00 18,1 15,9 14,7 21,8 21,3 3 2 7 4 ESE 1016,3 35 18 0,0
24.08.2019 07:00:00 17,7 16,0 14,9 21,9 21,3 4 2 13 7 N 1016,4 39 0 0,0
24.08.2019 06:00:00 17,5 15,7 15,2 22,0 21,3 6 4 9 5 E 1016,3 43 0 0,0
24.08.2019 05:00:00 17,6 16,1 14,7 22,1 21,3 4 2 10 6 E 1016,3 43 0 0,0
24.08.2019 04:00:00 18,3 15,0 14,5 22,3 21,3 3 2 7 4 E 1016,5 50 0 0,0
24.08.2019 03:00:00 18,8 15,5 13,8 22,4 21,3 4 2 10 5 SE 1016,3 50 0 0,0
24.08.2019 02:00:00 19,2 16,1 14,2 22,5 21,3 8 4 14 7 SSE 1016,6 56 0 0,0
24.08.2019 01:00:00 19,1 15,8 14,6 22,6 21,3 10 6 14 8 SSE 1016,6 50 0 0,0
24.08.2019 00:00:00 21,1 16,5 18,1 22,7 21,3 10 5 16 9 SSE 1016,7 59 0 0,0
23.08.2019 23:00:00 22,0 17,6 19,4 22,7 21,3 8 5 15 8 ESE 1016,6 60 0 0,0
23.08.2019 22:00:00 22,5 17,6 20,7 22,8 21,3 10 5 15 8 ESE 1016,5 60 0 0,0
23.08.2019 21:00:00 24,1 18,3 22,9 22,8 21,3 10 6 19 10 E 1016,3 59 35 0,0
23.08.2019 20:00:00 28,1 19,1 28,4 22,8 21,3 10 6 22 12 E 1016,2 52 60 0,0
23.08.2019 19:00:00 30,1 17,9 34,2 22,7 21,3 15 8 23 12 E 1016,4 24 60 0,0
23.08.2019 18:00:00 30,8 19,2 35,8 22,5 21,3 14 8 23 13 E 1016,7 20 60 0,0
23.08.2019 17:00:00 30,6 17,7 32,6 22,3 21,3 16 9 26 14 E 1016,9 27 40 0,0
23.08.2019 16:00:00 30,7 17,8 35,3 22,0 21,3 17 9 28 15 E 1017,1 31 60 0,0
23.08.2019 15:00:00 30,0 20,3 33,6 21,7 21,3 16 9 24 13 E 1017,6 38 49 0,0
23.08.2019 14:00:00 28,9 19,2 34,3 21,4 21,3 14 8 22 12 E 1018,2 42 60 0,0
23.08.2019 13:00:00 27,7 19,5 33,7 21,1 21,3 13 7 21 12 E 1018,5 40 60 0,0
23.08.2019 12:00:00 25,7 18,1 30,5 21,0 21,3 12 6 19 10 E 1019,0 20 60 0,0
23.08.2019 11:00:00 22,6 17,1 27,3 21,0 21,3 9 5 16 8 E 1019,5 43 60 0,0
23.08.2019 10:00:00 19,3 16,0 21,1 21,0 21,3 7 4 16 9 SE 1019,8 26 60 0,0
23.08.2019 09:00:00 16,3 14,5 14,4 21,2 21,3 6 3 13 7 SE 1020,2 27 60 0,0
23.08.2019 08:00:00 13,5 12,9 12,6 21,3 21,3 4 2 16 9 SSE 1020,2 26 19 0,2
23.08.2019 07:00:00 13,4 12,3 10,7 21,4 21,3 7 4 9 5 SSE 1020,0 37 0 0,0
23.08.2019 06:00:00 13,7 12,6 11,1 21,6 21,3 5 3 16 9 S 1020,1 30 0 0,0
23.08.2019 05:00:00 14,2 12,6 11,5 21,7 21,3 10 5 15 8 SSE 1020,2 42 0 0,0
23.08.2019 04:00:00 14,9 13,3 11,7 21,8 21,3 7 4 15 8 SSE 1020,7 40 0 0,0
23.08.2019 03:00:00 15,2 14,1 12,0 22,0 21,3 9 5 13 7 SSE 1020,9 39 0 0,0
23.08.2019 02:00:00 16,0 13,8 13,9 22,1 21,3 8 4 10 6 S 1021,4 38 0 0,0
23.08.2019 01:00:00 16,8 14,4 14,9 22,2 21,3 6 4 9 5 SSW 1021,7 40 0 0,0
23.08.2019 00:00:00 17,5 15,1 16,5 22,4 21,3 6 3 9 5 SSW 1022,0 40 0 0,0
22.08.2019 23:00:00 18,9 16,5 16,0 22,5 21,3 5 3 9 5 SW 1022,3 39 0 0,0
22.08.2019 22:00:00 19,8 16,1 16,5 22,6 21,3 6 3 10 5 WSW 1022,3 50 0 0,0
22.08.2019 21:00:00 21,4 15,7 19,2 22,6 21,3 3 1 16 9 W 1021,6 51 16 0,0
22.08.2019 20:00:00 22,6 15,4 23,9 22,7 21,3 11 6 22 12 N 1021,3 9 48 0,0
22.08.2019 19:00:00 23,8 11,8 29,2 22,6 21,3 12 6 25 13 NNW 1021,6 50 60 0,0
22.08.2019 18:00:00 23,8 15,3 30,8 22,5 21,3 15 8 23 12 N 1021,9 36 60 0,0
22.08.2019 17:00:00 24,1 16,1 31,0 22,2 21,3 13 7 24 13 NNW 1022,1 20 60 0,0
22.08.2019 16:00:00 23,8 19,3 30,8 21,9 21,3 14 7 26 14 NW 1022,7 20 60 0,0
22.08.2019 15:00:00 23,7 20,0 28,8 21,6 21,3 14 8 26 14 W 1023,1 19 58 0,0
22.08.2019 14:00:00 23,2 19,8 26,7 21,4 21,3 15 8 24 13 WNW 1023,5 17 54 0,0
22.08.2019 13:00:00 22,8 19,0 27,1 21,2 21,3 15 8 26 14 W 1024,0 17 49 0,0
22.08.2019 12:00:00 22,1 18,9 25,6 21,1 21,3 14 8 27 14 W 1024,1 19 44 0,0
22.08.2019 11:00:00 21,7 18,7 26,6 21,0 21,3 14 7 27 15 W 1023,7 19 60 0,0
22.08.2019 10:00:00 20,6 18,2 22,8 21,0 21,3 6 4 16 9 SW 1023,5 29 60 0,0
22.08.2019 09:00:00 17,9 16,6 16,2 21,1 21,3 6 3 11 6 S 1023,5 22 60 0,0
22.08.2019 08:00:00 15,5 15,0 14,8 21,2 21,3 7 4 10 5 S 1023,1 27 20 0,0
22.08.2019 07:00:00 15,3 14,7 14,8 21,3 21,3 8 4 12 7 S 1022,7 20 0 0,0
22.08.2019 06:00:00 15,6 15,0 15,2 21,4 21,3 7 4 12 6 S 1022,4 22 0 0,0
22.08.2019 05:00:00 16,7 16,1 16,9 21,5 21,3 8 4 14 8 SSW 1022,1 24 0 0,2
22.08.2019 04:00:00 17,5 17,0 17,5 21,6 21,3 9 5 14 8 SSW 1022,1 14 0 0,0
22.08.2019 03:00:00 17,2 16,4 16,7 21,7 21,3 8 4 13 7 SW 1022,3 20 0 0,0
22.08.2019 02:00:00 17,4 16,4 17,0 21,8 21,3 6 3 11 6 S 1022,8 20 0 0,0
22.08.2019 01:00:00 17,8 17,0 18,0 21,9 21,3 5 3 16 9 SW 1023,1 20 0 0,0
22.08.2019 00:00:00 18,1 17,3 18,1 22,0 21,3 6 4 13 7 SSW 1023,0 29 0 0,0
21.08.2019 23:00:00 19,1 17,2 17,9 22,1 21,3 6 4 16 9 S 1022,8 26 0 0,0
21.08.2019 22:00:00 21,0 18,2 21,4 22,1 21,3 12 6 24 13 N 1022,4 29 0 0,0
21.08.2019 21:00:00 21,9 17,7 22,5 22,1 21,4 12 6 24 13 N 1021,9 42 38 0,0
21.08.2019 20:00:00 23,8 17,1 25,1 22,1 21,4 10 6 20 11 NNW 1021,2 38 60 0,0
21.08.2019 19:00:00 24,9 14,4 30,3 22,1 21,4 11 6 23 12 NNW 1020,9 35 60 0,0
21.08.2019 18:00:00 25,0 15,0 30,8 21,9 21,4 9 5 26 14 NNW 1020,8 37 60 0,0
21.08.2019 17:00:00 25,9 15,3 31,4 21,7 21,4 16 9 28 15 E 1020,9 22 60 0,0
21.08.2019 16:00:00 25,7 15,7 30,2 21,5 21,4 14 8 31 17 E 1021,0 20 60 0,0
21.08.2019 15:00:00 25,0 15,9 29,8 21,3 21,4 17 9 36 19 ENE 1021,6 14 60 0,0
21.08.2019 14:00:00 24,6 15,0 30,1 21,1 21,4 18 10 35 19 E 1021,8 15 60 0,0
21.08.2019 13:00:00 23,5 16,0 26,9 20,9 21,4 21 12 34 18 E 1022,3 15 50 0,0
21.08.2019 12:00:00 22,6 16,4 27,9 20,8 21,4 22 12 34 18 E 1022,8 16 60 0,0
21.08.2019 11:00:00 21,3 16,0 25,6 20,8 21,4 16 8 24 13 E 1022,9 17 60 0,0
21.08.2019 10:00:00 18,8 15,7 20,2 20,8 21,4 9 5 14 8 ENE 1023,3 18 60 0,0
21.08.2019 09:00:00 15,8 14,5 15,3 20,9 21,4 8 4 15 8 ENE 1023,2 19 28 0,0
21.08.2019 08:00:00 13,8 13,3 13,8 21,0 21,4 9 5 13 7 ENE 1023,0 20 0 0,0
21.08.2019 07:00:00 13,2 12,7 12,8 21,2 21,4 6 3 12 6 ESE 1023,1 26 0 0,0
21.08.2019 06:00:00 13,4 12,6 11,8 21,3 21,4 4 2 10 5 SE 1023,4 33 0 0,0
21.08.2019 05:00:00 14,1 12,7 11,9 21,5 21,4 6 4 16 8 SE 1024,0 27 0 0,0
21.08.2019 04:00:00 14,2 13,1 12,5 21,6 21,4 8 4 16 9 SSE 1023,9 34 0 0,0
21.08.2019 03:00:00 15,1 12,6 13,7 21,7 21,4 8 4 14 8 SE 1024,5 50 0 0,0
21.08.2019 02:00:00 15,4 12,3 14,2 21,8 21,4 9 5 14 7 SSE 1024,8 41 0 0,0
21.08.2019 01:00:00 15,8 12,7 14,7 22,0 21,4 7 4 15 8 ESE 1025,1 55 0 0,0
21.08.2019 00:00:00 16,9 12,2 15,7 22,1 21,5 9 5 15 8 SSE 1025,2 51 0 0,0
20.08.2019 23:00:00 18,5 12,0 18,4 22,2 21,5 10 6 23 12 NNE 1024,9 60 0 0,0
20.08.2019 22:00:00 19,3 13,5 19,4 22,3 21,5 10 5 28 15 N 1024,8 35 0 0,0
20.08.2019 21:00:00 20,0 14,6 20,8 22,3 21,4 14 8 25 13 N 1024,6 52 40 0,0
20.08.2019 20:00:00 20,9 14,3 22,8 22,3 21,4 11 6 25 13 N 1024,5 28 60 0,0
20.08.2019 19:00:00 21,6 14,7 26,0 22,3 21,5 16 9 26 14 N 1024,4 14 55 0,0
20.08.2019 18:00:00 21,6 15,0 24,3 22,2 21,4 15 8 26 14 N 1024,4 18 42 0,0
20.08.2019 17:00:00 21,1 16,1 25,3 21,9 21,5 14 7 26 14 N 1024,8 18 31 0,0
20.08.2019 16:00:00 21,3 16,5 27,7 21,7 21,5 14 7 26 14 NNW 1025,0 27 60 0,0
20.08.2019 15:00:00 21,1 15,2 26,7 21,4 21,5 14 8 21 11 NNW 1024,6 29 57 0,0
20.08.2019 14:00:00 21,2 15,7 27,2 21,2 21,5 9 5 18 10 NE 1024,7 20 46 0,0
20.08.2019 13:00:00 19,9 15,7 24,1 21,1 21,5 5 3 14 8 E 1025,0 44 0 0,0
20.08.2019 12:00:00 18,5 15,4 23,3 21,1 21,5 5 3 19 11 NE 1024,8 34 0 0,0
20.08.2019 11:00:00 17,5 15,8 18,6 21,1 21,5 5 3 10 5 NE 1024,2 32 0 0,0
20.08.2019 10:00:00 16,4 15,8 17,4 21,2 21,5 6 4 14 7 ENE 1024,0 20 0 0,0
20.08.2019 09:00:00 15,9 15,6 16,9 21,2 21,5 6 3 13 7 ESE 1023,2 20 0 0,0
20.08.2019 08:00:00 15,6 15,3 16,6 21,3 21,5 7 4 16 9 SE 1022,5 13 0 0,2
20.08.2019 07:00:00 15,7 15,1 16,6 21,4 21,5 6 3 13 7 ENE 1021,9 16 0 0,0
20.08.2019 06:00:00 15,6 15,0 16,5 21,5 21,5 9 5 16 9 E 1021,6 26 0 0,4
20.08.2019 05:00:00 15,7 14,9 16,5 21,6 21,5 8 4 14 7 ENE 1021,4 13 0 1,0
20.08.2019 04:00:00 16,0 15,0 16,6 21,7 21,5 9 5 18 10 E 1021,1 7 0 1,6
20.08.2019 03:00:00 17,4 14,5 17,2 21,8 21,5 9 5 14 7 NE 1021,2 10 0 0,4
20.08.2019 02:00:00 17,4 14,3 18,3 21,8 21,5 5 3 13 7 NE 1021,6 48 0 0,0
20.08.2019 01:00:00 17,6 14,5 18,0 21,9 21,5 4 2 17 9 E 1022,0 46 0 0,0
20.08.2019 00:00:00 18,0 14,1 17,2 22,0 21,6 6 3 18 10 NE 1021,7 47 0 0,2
19.08.2019 23:00:00 18,8 13,6 19,7 22,1 21,5 4 2 18 10 E 1022,3 53 0 0,0
19.08.2019 22:00:00 18,9 14,4 19,9 22,2 21,5 10 5 24 13 NE 1021,7 48 0 0,0
19.08.2019 21:00:00 19,5 14,9 20,7 22,2 21,5 9 5 22 12 NNE 1021,3 41 0 0,0
19.08.2019 20:00:00 19,8 15,0 21,2 22,3 21,5 12 7 29 15 N 1021,2 55 0 0,0
19.08.2019 19:00:00 20,1 14,9 21,2 22,3 21,6 9 5 14 8 NNE 1020,8 43 0 0,0
19.08.2019 18:00:00 19,9 15,3 21,2 22,3 21,6 6 4 17 9 E 1020,7 48 0 0,0
19.08.2019 17:00:00 20,5 15,1 22,0 22,3 21,5 7 4 17 9 E 1020,7 39 0 0,0
19.08.2019 16:00:00 21,0 14,9 23,4 22,2 21,6 7 4 18 10 ESE 1021,0 49 0 0,0
19.08.2019 15:00:00 21,3 14,9 24,4 22,1 21,6 10 5 26 14 E 1021,0 52 4 0,0
19.08.2019 14:00:00 22,0 15,4 26,7 21,9 21,6 12 7 26 14 E 1020,8 40 23 0,0
19.08.2019 13:00:00 21,5 15,3 26,6 21,8 21,5 11 6 24 13 ESE 1020,7 43 57 0,0
19.08.2019 12:00:00 20,8 15,3 23,8 21,8 21,6 11 6 23 12 E 1020,8 43 10 0,0
19.08.2019 11:00:00 19,5 16,5 22,7 21,8 21,6 9 5 14 7 E 1020,7 53 2 0,0
19.08.2019 10:00:00 18,7 16,3 20,3 21,8 21,6 6 3 11 6 E 1020,5 51 14 0,0
19.08.2019 09:00:00 17,1 16,1 17,9 21,8 21,5 5 3 8 5 ESE 1020,3 40 1 0,0
19.08.2019 08:00:00 16,5 16,0 17,7 21,9 21,6 7 4 10 6 SE 1020,2 39 5 0,0

tt = temperature
td = dewpoint
tt 5cm = temperature 5cm
tt -20cm = temperature -20cm
tt -100cm = temperature -100cm
ff = wind speed
fx = gusts
dd = wind direction
ppp = reduced air pressure
vv = visibility
sd = sunshine duration
rr = precipitation

Next stations